Location: Gwatt
(46.7204°N, 7.6223°E)
Time: 22:40:31
(UTC+00:00)

Tiros 1 despin weight - Pass Details

Date: 21 January 2021
Orbit: 593 x 642 km, 48.2° (Epoch: 08 March)

Event Time Altitude Azimuth Distance (km) Brightness Sun altitude
Rises 17:47:30 0° 274° (W) 2,859 ? -15.3°
Reaches altitude 10° 17:49:49 10° 277° (W) 1,948 ? -15.7°
Maximum altitude 17:54:17 72° 2° (N) 630 ? -16.5°
Enters shadow 17:56:12 33° 80° (E) 1,012 ? -16.8°
